| time (UTC) | temp F | wind direction | speed MPH | gust MPH | rain 1hr in | rain 24hr in | rain mn in | humidity % | barometer mb |
| 20260509164536 | 70 | 132 | 2.0 | 4.0 | 0.00 | 0.00 | 0.00 | 67 | 1015.3 |
| 20260509164030 | 69 | 60 | 1.0 | 4.0 | 0.00 | 0.00 | 0.00 | 66 | 1015.3 |
| 20260509163535 | 69 | 147 | 1.0 | 4.0 | 0.00 | 0.00 | 0.00 | 65 | 1015.3 |
| 20260509163046 | 69 | 89 | 0.0 | 3.0 | 0.00 | 0.00 | 0.00 | 68 | 1015.3 |
| 20260509162532 | 68 | 329 | 1.0 | 5.0 | 0.00 | 0.00 | 0.00 | 70 | 1015.3 |
| 20260509162030 | 68 | 148 | 1.0 | 5.0 | 0.00 | 0.00 | 0.00 | 69 | 1015.4 |
| 20260509161544 | 68 | 35 | 1.0 | 4.0 | 0.00 | 0.00 | 0.00 | 69 | 1015.4 |
| 20260509161033 | 68 | 16 | 0.0 | 4.0 | 0.00 | 0.00 | 0.00 | 71 | 1015.4 |
| 20260509160530 | 67 | 0 | 1.0 | 4.0 | 0.00 | 0.00 | 0.00 | 70 | 1015.4 |
| 20260509160042 | 67 | 13 | 2.0 | 4.0 | 0.00 | 0.00 | 0.00 | 70 | 1015.4 |
| 20260509155532 | 67 | 333 | 2.0 | 4.0 | 0.00 | 0.00 | 0.00 | 69 | 1015.4 |
| 20260509155030 | 67 | 335 | 1.0 | 3.0 | 0.00 | 0.00 | 0.00 | 69 | 1015.3 |
| 20260509154537 | 66 | 309 | 0.0 | 1.0 | 0.00 | 0.00 | 0.00 | 69 | 1015.3 |
| 20260509154030 | 66 | 0 | 0.0 | 2.0 | 0.00 | 0.00 | 0.00 | 70 | 1015.3 |
| 20260509153530 | 66 | 0 | 0.0 | 2.0 | 0.00 | 0.00 | 0.00 | 71 | 1015.2 |
| 20260509153051 | 65 | 287 | 0.0 | 1.0 | 0.00 | 0.00 | 0.00 | 71 | 1015.3 |
| 20260509152531 | 65 | 0 | 0.0 | 1.0 | 0.00 | 0.00 | 0.00 | 71 | 1015.3 |
| 20260509152029 | 64 | 0 | 0.0 | 1.0 | 0.00 | 0.00 | 0.00 | 72 | 1015.3 |
| 20260509151544 | 64 | 301 | 0.0 | 2.0 | 0.00 | 0.00 | 0.00 | 72 | 1015.4 |
| 20260509151030 | 63 | 0 | 0.0 | 2.0 | 0.00 | 0.00 | 0.00 | 73 | 1015.4 |
| 20260509150531 | 63 | 257 | 0.0 | 2.0 | 0.00 | 0.00 | 0.00 | 73 | 1015.4 |
| 20260509150042 | 63 | 247 | 0.0 | 2.0 | 0.00 | 0.00 | 0.00 | 74 | 1015.4 |
| 20260509145530 | 62 | 0 | 0.0 | 2.0 | 0.00 | 0.00 | 0.00 | 74 | 1015.3 |
| 20260509145030 | 62 | 0 | 0.0 | 2.0 | 0.00 | 0.00 | 0.00 | 74 | 1015.4 |
| 20260509144540 | 61 | 0 | 0.0 | 1.0 | 0.00 | 0.00 | 0.00 | 75 | 1015.3 |
| 20260509144030 | 61 | 287 | 0.0 | 1.0 | 0.00 | 0.00 | 0.00 | 75 | 1015.3 |
| 20260509143530 | 60 | 0 | 0.0 | 2.0 | 0.00 | 0.00 | 0.00 | 75 | 1015.3 |
| 20260509143041 | 60 | 282 | 0.0 | 2.0 | 0.00 | 0.00 | 0.00 | 76 | 1015.3 |
| 20260509142528 | 60 | 262 | 0.0 | 1.0 | 0.00 | 0.00 | 0.00 | 77 | 1015.2 |
| 20260509142030 | 59 | 0 | 0.0 | 1.0 | 0.00 | 0.00 | 0.00 | 77 | 1015.2 |
| 20260509141537 | 59 | 0 | 0.0 | 1.0 | 0.00 | 0.00 | 0.00 | 78 | 1015.2 |
| 20260509141030 | 59 | 0 | 0.0 | 1.0 | 0.00 | 0.00 | 0.00 | 77 | 1015.2 |
| 20260509140529 | 58 | 271 | 0.0 | 1.0 | 0.00 | 0.00 | 0.00 | 78 | 1015.2 |
| 20260509140056 | 58 | 0 | 0.0 | 1.0 | 0.00 | 0.00 | 0.00 | 78 | 1015.2 |
| 20260509135531 | 58 | 0 | 0.0 | 1.0 | 0.00 | 0.00 | 0.00 | 78 | 1015.2 |
| 20260509135029 | 58 | 0 | 0.0 | 1.0 | 0.00 | 0.00 | 0.00 | 79 | 1015.1 |
| 20260509134539 | 58 | 231 | 0.0 | 1.0 | 0.00 | 0.00 | 0.00 | 78 | 1015.0 |
| 20260509134030 | 58 | 0 | 0.0 | 1.0 | 0.00 | 0.00 | 0.00 | 78 | 1015.1 |
| 20260509133530 | 57 | 238 | 0.0 | 1.0 | 0.00 | 0.00 | 0.00 | 79 | 1015.0 |
| 20260509133039 | 57 | 0 | 0.0 | 1.0 | 0.00 | 0.00 | 0.00 | 79 | 1015.1 |
| 20260509132532 | 57 | 0 | 0.0 | 1.0 | 0.00 | 0.00 | 0.00 | 79 | 1015.1 |
| 20260509132031 | 57 | 235 | 0.0 | 2.0 | 0.00 | 0.00 | 0.00 | 78 | 1015.1 |
| 20260509131536 | 57 | 0 | 0.0 | 2.0 | 0.00 | 0.00 | 0.00 | 77 | 1015.1 |
| 20260509131030 | 58 | 229 | 0.0 | 1.0 | 0.00 | 0.00 | 0.00 | 77 | 1015.1 |
| 20260509130530 | 58 | 0 | 0.0 | 1.0 | 0.00 | 0.00 | 0.00 | 77 | 1015.2 |
| 20260509130038 | 58 | 0 | 0.0 | 1.0 | 0.00 | 0.00 | 0.00 | 76 | 1015.0 |
| 20260509125531 | 58 | 0 | 0.0 | 1.0 | 0.00 | 0.00 | 0.00 | 77 | 1015.0 |
| 20260509125030 | 58 | 0 | 0.0 | 1.0 | 0.00 | 0.00 | 0.00 | 77 | 1015.0 |
| 20260509124533 | 58 | 0 | 0.0 | 2.0 | 0.00 | 0.00 | 0.00 | 77 | 1015.0 |
| 20260509124030 | 58 | 0 | 0.0 | 2.0 | 0.00 | 0.00 | 0.00 | 77 | 1015.0 |
| 20260509123530 | 58 | 246 | 0.0 | 2.0 | 0.00 | 0.00 | 0.00 | 77 | 1015.0 |
| 20260509123042 | 58 | 234 | 0.0 | 2.0 | 0.00 | 0.00 | 0.00 | 76 | 1015.1 |
| 20260509122531 | 59 | 235 | 0.0 | 2.0 | 0.00 | 0.00 | 0.00 | 76 | 1015.0 |
| 20260509122030 | 59 | 0 | 0.0 | 1.0 | 0.00 | 0.00 | 0.00 | 75 | 1014.9 |
| 20260509121537 | 59 | 0 | 0.0 | 1.0 | 0.00 | 0.00 | 0.00 | 75 | 1014.9 |
| 20260509121030 | 59 | 0 | 0.0 | 1.0 | 0.00 | 0.00 | 0.00 | 74 | 1014.9 |
| 20260509120530 | 59 | 0 | 0.0 | 1.0 | 0.00 | 0.00 | 0.00 | 75 | 1015.0 |
| 20260509120039 | 59 | 0 | 0.0 | 3.0 | 0.00 | 0.00 | 0.00 | 74 | 1015.0 |
| 20260509115530 | 59 | 0 | 0.0 | 3.0 | 0.00 | 0.00 | 0.00 | 74 | 1014.9 |
| 20260509115029 | 59 | 233 | 1.0 | 3.0 | 0.00 | 0.00 | 0.00 | 75 | 1014.9 |
| 20260509114536 | 59 | 236 | 0.0 | 2.0 | 0.00 | 0.00 | 0.00 | 76 | 1014.8 |
| 20260509114030 | 59 | 0 | 0.0 | 2.0 | 0.00 | 0.00 | 0.00 | 76 | 1014.8 |
| 20260509113532 | 59 | 234 | 0.0 | 2.0 | 0.00 | 0.00 | 0.00 | 76 | 1014.9 |
| 20260509113037 | 60 | 233 | 0.0 | 2.0 | 0.00 | 0.00 | 0.00 | 75 | 1014.7 |
| 20260509112530 | 60 | 0 | 0.0 | 2.0 | 0.00 | 0.00 | 0.00 | 75 | 1014.8 |
| 20260509112030 | 60 | 242 | 0.0 | 2.0 | 0.00 | 0.00 | 0.00 | 73 | 1014.9 |
| 20260509111542 | 61 | 243 | 1.0 | 2.0 | 0.00 | 0.00 | 0.00 | 73 | 1014.8 |
| 20260509111030 | 61 | 233 | 0.0 | 2.0 | 0.00 | 0.00 | 0.00 | 71 | 1014.8 |
| 20260509110531 | 61 | 0 | 0.0 | 3.0 | 0.00 | 0.00 | 0.00 | 72 | 1015.0 |
| 20260509110042 | 61 | 0 | 0.0 | 3.0 | 0.00 | 0.00 | 0.00 | 73 | 1014.8 |
| 20260509105531 | 61 | 232 | 1.0 | 3.0 | 0.00 | 0.00 | 0.00 | 73 | 1014.9 |
| 20260509105031 | 61 | 229 | 1.0 | 3.0 | 0.00 | 0.00 | 0.00 | 73 | 1014.9 |
| 20260509104540 | 61 | 236 | 1.0 | 2.0 | 0.00 | 0.00 | 0.00 | 74 | 1015.0 |
| 20260509104030 | 61 | 0 | 0.0 | 1.0 | 0.00 | 0.00 | 0.00 | 74 | 1014.9 |
| 20260509103530 | 61 | 239 | 0.0 | 2.0 | 0.00 | 0.00 | 0.00 | 74 | 1015.0 |
| 20260509103047 | 61 | 0 | 1.0 | 2.0 | 0.00 | 0.00 | 0.00 | 74 | 1015.0 |
| 20260509102530 | 61 | 240 | 0.0 | 3.0 | 0.00 | 0.00 | 0.00 | 73 | 1015.1 |
| 20260509102031 | 61 | 240 | 1.0 | 3.0 | 0.00 | 0.00 | 0.00 | 73 | 1015.2 |
| 20260509101538 | 61 | 244 | 1.0 | 3.0 | 0.00 | 0.00 | 0.00 | 73 | 1015.2 |
| 20260509101030 | 61 | 244 | 1.0 | 3.0 | 0.00 | 0.00 | 0.00 | 73 | 1015.2 |
| 20260509100529 | 61 | 238 | 1.0 | 2.0 | 0.00 | 0.00 | 0.00 | 73 | 1015.2 |
| 20260509100037 | 61 | 238 | 0.0 | 2.0 | 0.00 | 0.00 | 0.00 | 73 | 1015.2 |
| 20260509095528 | 61 | 238 | 1.0 | 2.0 | 0.00 | 0.00 | 0.00 | 74 | 1015.2 |
| 20260509095032 | 61 | 0 | 0.0 | 1.0 | 0.00 | 0.00 | 0.00 | 74 | 1015.2 |
| 20260509094546 | 61 | 0 | 0.0 | 1.0 | 0.00 | 0.00 | 0.00 | 75 | 1015.3 |
| 20260509094030 | 61 | 238 | 0.0 | 2.0 | 0.00 | 0.00 | 0.00 | 75 | 1015.2 |
| 20260509093530 | 61 | 0 | 0.0 | 2.0 | 0.00 | 0.00 | 0.00 | 74 | 1015.3 |
| 20260509093043 | 61 | 242 | 1.0 | 2.0 | 0.00 | 0.00 | 0.00 | 73 | 1015.4 |
| 20260509092530 | 62 | 245 | 1.0 | 2.0 | 0.00 | 0.00 | 0.00 | 72 | 1015.5 |
| 20260509092033 | 62 | 238 | 0.0 | 2.0 | 0.00 | 0.00 | 0.00 | 72 | 1015.5 |
| 20260509091538 | 62 | 0 | 0.0 | 2.0 | 0.00 | 0.00 | 0.00 | 71 | 1015.4 |
| 20260509091030 | 62 | 238 | 0.0 | 2.0 | 0.00 | 0.00 | 0.00 | 71 | 1015.5 |
| 20260509090529 | 62 | 238 | 1.0 | 2.0 | 0.00 | 0.00 | 0.00 | 72 | 1015.5 |
| 20260509090047 | 62 | 238 | 0.0 | 2.0 | 0.00 | 0.00 | 0.00 | 73 | 1015.4 |
| 20260509085530 | 62 | 238 | 0.0 | 2.0 | 0.00 | 0.00 | 0.00 | 74 | 1015.5 |
| 20260509085030 | 62 | 0 | 0.0 | 2.0 | 0.00 | 0.00 | 0.00 | 74 | 1015.5 |
| 20260509084536 | 62 | 245 | 0.0 | 2.0 | 0.00 | 0.00 | 0.00 | 74 | 1015.5 |
| 20260509084029 | 62 | 245 | 0.0 | 2.0 | 0.00 | 0.00 | 0.00 | 75 | 1015.5 |
| 20260509083531 | 62 | 0 | 0.0 | 2.0 | 0.00 | 0.00 | 0.00 | 75 | 1015.6 |
| 20260509083043 | 62 | 0 | 0.0 | 1.0 | 0.00 | 0.00 | 0.00 | 75 | 1015.6 |
| 20260509082529 | 62 | 0 | 0.0 | 1.0 | 0.00 | 0.00 | 0.00 | 74 | 1015.6 |
| 20260509082032 | 63 | 0 | 0.0 | 1.0 | 0.00 | 0.00 | 0.00 | 73 | 1015.6 |
| 20260509081537 | 63 | 0 | 0.0 | 0.0 | 0.00 | 0.00 | 0.00 | 72 | 1015.7 |
| 20260509081030 | 64 | 0 | 0.0 | 0.0 | 0.00 | 0.00 | 0.00 | 72 | 1015.8 |
| 20260509080529 | 64 | 0 | 0.0 | 0.0 | 0.00 | 0.00 | 0.00 | 71 | 1015.8 |
| 20260509080034 | 64 | 0 | 0.0 | 2.0 | 0.00 | 0.00 | 0.00 | 71 | 1015.8 |
| 20260509075530 | 64 | 0 | 0.0 | 2.0 | 0.00 | 0.00 | 0.00 | 71 | 1015.8 |
| 20260509075029 | 64 | 223 | 0.0 | 2.0 | 0.00 | 0.00 | 0.00 | 71 | 1015.9 |
| 20260509074535 | 65 | 0 | 0.0 | 1.0 | 0.00 | 0.00 | 0.00 | 71 | 1015.9 |
| 20260509074034 | 65 | 0 | 0.0 | 3.0 | 0.00 | 0.00 | 0.00 | 70 | 1015.9 |
| 20260509073533 | 65 | 0 | 0.0 | 3.0 | 0.00 | 0.00 | 0.00 | 69 | 1015.8 |
| 20260509073043 | 65 | 224 | 0.0 | 3.0 | 0.00 | 0.00 | 0.00 | 70 | 1015.9 |
| 20260509072529 | 65 | 0 | 0.0 | 3.0 | 0.00 | 0.00 | 0.00 | 71 | 1015.9 |
| 20260509072029 | 65 | 0 | 1.0 | 3.0 | 0.00 | 0.00 | 0.00 | 72 | 1015.8 |
| 20260509071538 | 64 | 231 | 0.0 | 2.0 | 0.00 | 0.00 | 0.00 | 72 | 1015.8 |
| 20260509071030 | 64 | 231 | 0.0 | 2.0 | 0.00 | 0.00 | 0.00 | 72 | 1015.7 |
| 20260509070532 | 64 | 231 | 0.0 | 2.0 | 0.00 | 0.00 | 0.00 | 72 | 1015.8 |
| 20260509070042 | 64 | 240 | 0.0 | 2.0 | 0.00 | 0.00 | 0.00 | 73 | 1015.6 |
| 20260509065528 | 64 | 0 | 0.0 | 1.0 | 0.00 | 0.00 | 0.00 | 73 | 1015.7 |
| 20260509065031 | 64 | 0 | 0.0 | 2.0 | 0.00 | 0.00 | 0.00 | 72 | 1015.8 |
| 20260509064541 | 65 | 0 | 1.0 | 3.0 | 0.00 | 0.00 | 0.00 | 72 | 1015.8 |
| 20260509064034 | 65 | 243 | 1.0 | 3.0 | 0.00 | 0.00 | 0.00 | 71 | 1015.8 |
| 20260509063532 | 66 | 241 | 0.0 | 2.0 | 0.00 | 0.00 | 0.00 | 70 | 1015.8 |
| 20260509063034 | 67 | 0 | 0.0 | 1.0 | 0.00 | 0.00 | 0.00 | 70 | 1015.9 |
| 20260509062530 | 67 | 0 | 0.0 | 2.0 | 0.00 | 0.00 | 0.00 | 71 | 1015.9 |
| 20260509062030 | 66 | 0 | 1.0 | 2.0 | 0.00 | 0.00 | 0.00 | 71 | 1015.8 |
| 20260509061552 | 66 | 241 | 1.0 | 2.0 | 0.00 | 0.00 | 0.00 | 70 | 1015.9 |
| 20260509061032 | 66 | 241 | 1.0 | 2.0 | 0.00 | 0.00 | 0.00 | 68 | 1015.8 |
| 20260509060531 | 66 | 241 | 1.0 | 2.0 | 0.00 | 0.00 | 0.00 | 68 | 1015.9 |
| 20260509060043 | 67 | 241 | 1.0 | 2.0 | 0.00 | 0.00 | 0.00 | 69 | 1015.9 |
| 20260509055534 | 68 | 242 | 1.0 | 2.0 | 0.00 | 0.00 | 0.00 | 68 | 1015.9 |
| 20260509055032 | 68 | 0 | 0.0 | 0.0 | 0.00 | 0.00 | 0.00 | 67 | 1016.0 |
| 20260509054558 | 68 | 0 | 0.0 | 2.0 | 0.00 | 0.00 | 0.00 | 68 | 1015.9 |
| 20260509054030 | 68 | 0 | 0.0 | 2.0 | 0.00 | 0.00 | 0.00 | 68 | 1015.8 |
| 20260509053531 | 68 | 0 | 1.0 | 2.0 | 0.00 | 0.00 | 0.00 | 66 | 1015.9 |
| 20260509053051 | 68 | 202 | 1.0 | 2.0 | 0.00 | 0.00 | 0.00 | 64 | 1015.9 |
| 20260509052531 | 68 | 202 | 0.0 | 2.0 | 0.00 | 0.00 | 0.00 | 64 | 1016.0 |
| 20260509052031 | 68 | 0 | 0.0 | 0.0 | 0.00 | 0.00 | 0.00 | 63 | 1016.0 |
| 20260509051537 | 68 | 0 | 0.0 | 0.0 | 0.00 | 0.00 | 0.00 | 63 | 1015.9 |
| 20260509051030 | 68 | 0 | 0.0 | 0.0 | 0.00 | 0.00 | 0.00 | 64 | 1015.9 |
| 20260509050529 | 68 | 0 | 0.0 | 0.0 | 0.00 | 0.00 | 0.00 | 64 | 1015.9 |
| 20260509050046 | 68 | 0 | 0.0 | 0.0 | 0.00 | 0.00 | 0.00 | 63 | 1016.0 |
| 20260509045530 | 68 | 0 | 0.0 | 0.0 | 0.00 | 0.00 | 0.00 | 63 | 1016.0 |
| 20260509045030 | 69 | 0 | 0.0 | 0.0 | 0.00 | 0.00 | 0.00 | 62 | 1016.0 |
| 20260509044535 | 69 | 0 | 0.0 | 0.0 | 0.00 | 0.00 | 0.00 | 62 | 1016.0 |
| 20260509044030 | 69 | 0 | 0.0 | 1.0 | 0.00 | 0.00 | 0.00 | 62 | 1015.9 |
| 20260509043529 | 69 | 0 | 0.0 | 1.0 | 0.00 | 0.00 | 0.00 | 62 | 1016.0 |
| 20260509043054 | 69 | 0 | 0.0 | 1.0 | 0.00 | 0.00 | 0.00 | 61 | 1015.8 |
| 20260509042531 | 70 | 0 | 0.0 | 0.0 | 0.00 | 0.00 | 0.00 | 61 | 1015.8 |
| 20260509042034 | 70 | 0 | 0.0 | 0.0 | 0.00 | 0.00 | 0.00 | 60 | 1015.6 |
| 20260509041538 | 70 | 0 | 0.0 | 0.0 | 0.00 | 0.00 | 0.00 | 60 | 1015.7 |
| 20260509041029 | 70 | 0 | 0.0 | 1.0 | 0.00 | 0.00 | 0.00 | 60 | 1015.5 |
| 20260509040529 | 70 | 0 | 0.0 | 2.0 | 0.00 | 0.00 | 0.00 | 61 | 1015.5 |
| 20260509040037 | 71 | 0 | 0.0 | 2.0 | 0.00 | 0.00 | 0.00 | 61 | 1015.6 |
| 20260509035534 | 71 | 150 | 0.0 | 2.0 | 0.00 | 0.00 | 0.00 | 61 | 1015.5 |
| 20260509035029 | 71 | 150 | 0.0 | 2.0 | 0.00 | 0.00 | 0.00 | 61 | 1015.6 |
| 20260509034536 | 71 | 0 | 0.0 | 3.0 | 0.00 | 0.00 | 0.00 | 61 | 1015.5 |
| 20260509034033 | 71 | 148 | 1.0 | 3.0 | 0.00 | 0.00 | 0.00 | 61 | 1015.6 |
| 20260509033530 | 71 | 148 | 1.0 | 3.0 | 0.00 | 0.00 | 0.00 | 61 | 1015.5 |
| 20260509033043 | 71 | 142 | 0.0 | 3.0 | 0.00 | 0.00 | 0.00 | 61 | 1015.6 |
| 20260509032527 | 71 | 156 | 1.0 | 4.0 | 0.00 | 0.00 | 0.00 | 61 | 1015.5 |
| 20260509032030 | 72 | 150 | 1.0 | 4.0 | 0.00 | 0.00 | 0.00 | 60 | 1015.6 |
| 20260509031606 | 72 | 136 | 1.0 | 4.0 | 0.00 | 0.00 | 0.00 | 60 | 1015.6 |
| 20260509031030 | 72 | 151 | 2.0 | 3.0 | 0.00 | 0.00 | 0.00 | 60 | 1015.5 |
| 20260509030531 | 72 | 155 | 2.0 | 3.0 | 0.00 | 0.00 | 0.00 | 59 | 1015.5 |
| 20260509030040 | 73 | 143 | 2.0 | 3.0 | 0.00 | 0.00 | 0.00 | 59 | 1015.4 |
| 20260509025530 | 73 | 150 | 1.0 | 2.0 | 0.00 | 0.00 | 0.00 | 59 | 1015.4 |
| 20260509025030 | 73 | 150 | 1.0 | 2.0 | 0.00 | 0.00 | 0.00 | 58 | 1015.4 |
| 20260509024540 | 74 | 150 | 0.0 | 3.0 | 0.00 | 0.00 | 0.00 | 57 | 1015.4 |
| 20260509024028 | 74 | 150 | 1.0 | 3.0 | 0.00 | 0.00 | 0.00 | 57 | 1015.4 |
| 20260509023530 | 74 | 142 | 1.0 | 3.0 | 0.00 | 0.00 | 0.00 | 56 | 1015.4 |
| 20260509023038 | 74 | 157 | 1.0 | 4.0 | 0.00 | 0.00 | 0.00 | 56 | 1015.4 |
| 20260509022530 | 75 | 146 | 0.0 | 4.0 | 0.00 | 0.00 | 0.00 | 56 | 1015.3 |
| 20260509022031 | 75 | 152 | 1.0 | 4.0 | 0.00 | 0.00 | 0.00 | 54 | 1015.3 |
| 20260509021538 | 75 | 157 | 0.0 | 4.0 | 0.00 | 0.00 | 0.00 | 54 | 1015.4 |
| 20260509021031 | 75 | 159 | 0.0 | 5.0 | 0.00 | 0.00 | 0.00 | 54 | 1015.3 |
| 20260509020530 | 75 | 169 | 1.0 | 5.0 | 0.00 | 0.00 | 0.00 | 53 | 1015.4 |
| 20260509020035 | 76 | 153 | 2.0 | 5.0 | 0.00 | 0.00 | 0.00 | 54 | 1015.4 |
| 20260509015530 | 76 | 159 | 2.0 | 4.0 | 0.00 | 0.00 | 0.00 | 53 | 1015.4 |
| 20260509015028 | 76 | 147 | 2.0 | 4.0 | 0.00 | 0.00 | 0.00 | 53 | 1015.4 |
| 20260509014542 | 76 | 142 | 1.0 | 4.0 | 0.00 | 0.00 | 0.00 | 50 | 1015.5 |
| 20260509014029 | 76 | 159 | 1.0 | 6.0 | 0.00 | 0.00 | 0.00 | 49 | 1015.6 |
| 20260509013530 | 76 | 148 | 2.0 | 6.0 | 0.00 | 0.00 | 0.00 | 48 | 1015.5 |
| 20260509013041 | 77 | 153 | 1.0 | 6.0 | 0.00 | 0.00 | 0.00 | 48 | 1015.6 |
| 20260509012526 | 77 | 173 | 1.0 | 5.0 | 0.00 | 0.00 | 0.00 | 46 | 1015.5 |
| 20260509012029 | 77 | 0 | 1.0 | 6.0 | 0.00 | 0.00 | 0.00 | 47 | 1015.6 |
| 20260509011543 | 77 | 0 | 2.0 | 6.0 | 0.00 | 0.00 | 0.00 | 46 | 1015.6 |
| 20260509011031 | 77 | 0 | 2.0 | 6.0 | 0.00 | 0.00 | 0.00 | 45 | 1015.7 |
| 20260509010529 | 77 | 147 | 2.0 | 5.0 | 0.00 | 0.00 | 0.00 | 45 | 1015.7 |
| 20260509010042 | 78 | 138 | 2.0 | 5.0 | 0.00 | 0.00 | 0.00 | 47 | 1015.7 |
| 20260509005532 | 78 | 146 | 1.0 | 4.0 | 0.00 | 0.00 | 0.00 | 47 | 1015.7 |
| 20260509005031 | 79 | 15 | 1.0 | 7.0 | 0.00 | 0.00 | 0.00 | 46 | 1015.8 |
| 20260509004546 | 78 | 159 | 1.0 | 7.0 | 0.00 | 0.00 | 0.00 | 51 | 1015.8 |
| 20260509004030 | 78 | 119 | 2.0 | 7.0 | 0.00 | 0.00 | 0.00 | 49 | 1015.8 |
| 20260509003531 | 78 | 59 | 3.0 | 7.0 | 0.00 | 0.00 | 0.00 | 51 | 1016.0 |
| 20260509003044 | 78 | 115 | 1.0 | 4.0 | 0.00 | 0.00 | 0.00 | 48 | 1016.0 |
| 20260509002529 | 78 | 0 | 1.0 | 7.0 | 0.00 | 0.00 | 0.00 | 50 | 1016.1 |
| 20260509002027 | 78 | 113 | 2.0 | 7.0 | 0.00 | 0.00 | 0.00 | 50 | 1016.0 |
| 20260509001542 | 78 | 163 | 2.0 | 7.0 | 0.00 | 0.00 | 0.00 | 49 | 1016.1 |
| 20260509001029 | 78 | 113 | 2.0 | 7.0 | 0.00 | 0.00 | 0.00 | 51 | 1016.0 |
| 20260509000527 | 78 | 136 | 2.0 | 8.0 | 0.00 | 0.00 | 0.00 | 52 | 1016.0 |
| 20260509000044 | 78 | 150 | 3.0 | 8.0 | 0.00 | 0.00 | 0.00 | 53 | 1016.0 |
| 20260508235527 | 78 | 106 | 1.0 | 7.0 | 0.00 | 0.00 | 0.00 | 49 | 1016.0 |
| 20260508235034 | 78 | 146 | 2.0 | 7.0 | 0.00 | 0.00 | 0.00 | 52 | 1016.1 |
| 20260508234538 | 78 | 140 | 3.0 | 7.0 | 0.00 | 0.00 | 0.00 | 48 | 1016.2 |
| 20260508234028 | 79 | 145 | 1.0 | 6.0 | 0.00 | 0.00 | 0.00 | 48 | 1016.1 |
| 20260508233529 | 79 | 128 | 1.0 | 4.0 | 0.00 | 0.00 | 0.00 | 49 | 1016.2 |
| 20260508233038 | 79 | 146 | 1.0 | 7.0 | 0.00 | 0.00 | 0.00 | 48 | 1016.2 |
| 20260508232530 | 79 | 49 | 2.0 | 7.0 | 0.00 | 0.00 | 0.00 | 46 | 1016.2 |
| 20260508232026 | 79 | 198 | 2.0 | 7.0 | 0.00 | 0.00 | 0.00 | 47 | 1016.2 |
| 20260508231550 | 79 | 139 | 2.0 | 6.0 | 0.00 | 0.00 | 0.00 | 49 | 1016.3 |
| 20260508231029 | 79 | 126 | 2.0 | 6.0 | 0.00 | 0.00 | 0.00 | 47 | 1016.3 |
| 20260508230530 | 79 | 182 | 2.0 | 7.0 | 0.00 | 0.00 | 0.00 | 46 | 1016.3 |
| 20260508230043 | 78 | 215 | 3.0 | 7.0 | 0.00 | 0.00 | 0.00 | 48 | 1016.3 |
| 20260508225528 | 79 | 0 | 2.0 | 5.0 | 0.00 | 0.00 | 0.00 | 49 | 1016.5 |
| 20260508225033 | 79 | 36 | 2.0 | 5.0 | 0.00 | 0.00 | 0.00 | 51 | 1016.6 |
| 20260508224540 | 79 | 117 | 1.0 | 4.0 | 0.00 | 0.00 | 0.00 | 48 | 1016.7 |
| 20260508224029 | 78 | 329 | 2.0 | 9.0 | 0.00 | 0.00 | 0.00 | 52 | 1016.8 |
| 20260508223529 | 77 | 63 | 2.0 | 9.0 | 0.00 | 0.00 | 0.00 | 56 | 1017.0 |
| 20260508223039 | 77 | 157 | 4.0 | 8.0 | 0.00 | 0.00 | 0.00 | 47 | 1017.0 |
| 20260508222529 | 77 | 123 | 2.0 | 7.0 | 0.00 | 0.00 | 0.00 | 53 | 1017.0 |
| 20260508222029 | 77 | 85 | 2.0 | 7.0 | 0.00 | 0.00 | 0.00 | 54 | 1017.1 |
| 20260508221539 | 77 | 145 | 3.0 | 7.0 | 0.00 | 0.00 | 0.00 | 54 | 1017.2 |
| 20260508221031 | 77 | 80 | 1.0 | 8.0 | 0.00 | 0.00 | 0.00 | 56 | 1017.2 |
| 20260508220532 | 77 | 90 | 2.0 | 8.0 | 0.00 | 0.00 | 0.00 | 57 | 1017.3 |
| 20260508220043 | 77 | 135 | 2.0 | 8.0 | 0.00 | 0.00 | 0.00 | 59 | 1017.3 |
| 20260508215532 | 76 | 179 | 2.0 | 8.0 | 0.00 | 0.00 | 0.00 | 55 | 1017.4 |
| 20260508215029 | 77 | 105 | 2.0 | 9.0 | 0.00 | 0.00 | 0.00 | 58 | 1017.4 |
| 20260508214535 | 76 | 35 | 3.0 | 9.0 | 0.00 | 0.00 | 0.00 | 60 | 1017.5 |
| 20260508214029 | 77 | 135 | 3.0 | 8.0 | 0.00 | 0.00 | 0.00 | 58 | 1017.6 |
| 20260508213529 | 77 | 339 | 2.0 | 7.0 | 0.00 | 0.00 | 0.00 | 58 | 1017.6 |
| 20260508213046 | 78 | 137 | 1.0 | 7.0 | 0.00 | 0.00 | 0.00 | 59 | 1017.6 |
| 20260508212529 | 77 | 19 | 1.0 | 6.0 | 0.00 | 0.00 | 0.00 | 57 | 1017.7 |
| 20260508212031 | 78 | 119 | 2.0 | 6.0 | 0.00 | 0.00 | 0.00 | 56 | 1017.7 |
| 20260508211538 | 77 | 5 | 2.0 | 7.0 | 0.00 | 0.00 | 0.00 | 57 | 1017.6 |
| 20260508211029 | 76 | 116 | 1.0 | 7.0 | 0.00 | 0.00 | 0.00 | 59 | 1017.6 |
| 20260508210530 | 76 | 19 | 2.0 | 6.0 | 0.00 | 0.00 | 0.00 | 60 | 1017.7 |
| 20260508210042 | 75 | 113 | 1.0 | 6.0 | 0.00 | 0.00 | 0.00 | 62 | 1017.8 |
| 20260508205530 | 75 | 129 | 2.0 | 8.0 | 0.00 | 0.00 | 0.00 | 60 | 1017.8 |
| 20260508205031 | 75 | 130 | 3.0 | 8.0 | 0.00 | 0.00 | 0.00 | 61 | 1017.8 |
| 20260508204541 | 75 | 98 | 2.0 | 9.0 | 0.00 | 0.00 | 0.00 | 62 | 1017.9 |
| 20260508204029 | 74 | 147 | 2.0 | 9.0 | 0.00 | 0.00 | 0.00 | 63 | 1017.9 |
| 20260508203529 | 74 | 151 | 3.0 | 9.0 | 0.00 | 0.00 | 0.00 | 59 | 1017.9 |
| 20260508203045 | 74 | 169 | 2.0 | 7.0 | 0.00 | 0.00 | 0.00 | 60 | 1017.8 |
| 20260508202532 | 74 | 98 | 2.0 | 8.0 | 0.00 | 0.00 | 0.00 | 61 | 1017.9 |
| 20260508202029 | 74 | 115 | 2.0 | 8.0 | 0.00 | 0.00 | 0.00 | 61 | 1017.9 |
| 20260508201541 | 74 | 104 | 3.0 | 9.0 | 0.00 | 0.00 | 0.00 | 61 | 1018.0 |
| 20260508201030 | 74 | 148 | 2.0 | 9.0 | 0.00 | 0.00 | 0.00 | 62 | 1018.0 |
| 20260508200529 | 73 | 74 | 2.0 | 9.0 | 0.00 | 0.00 | 0.00 | 64 | 1018.0 |
| 20260508200049 | 73 | 144 | 2.0 | 8.0 | 0.00 | 0.00 | 0.00 | 63 | 1018.1 |
| 20260508195529 | 73 | 139 | 3.0 | 8.0 | 0.00 | 0.00 | 0.00 | 64 | 1018.1 |
| 20260508195030 | 73 | 94 | 3.0 | 8.0 | 0.00 | 0.00 | 0.00 | 64 | 1018.1 |
| 20260508194539 | 73 | 133 | 2.0 | 8.0 | 0.00 | 0.00 | 0.00 | 65 | 1018.1 |
| 20260508194028 | 72 | 150 | 3.0 | 8.0 | 0.00 | 0.00 | 0.00 | 64 | 1018.3 |
| 20260508193529 | 73 | 134 | 2.0 | 7.0 | 0.00 | 0.00 | 0.00 | 63 | 1018.2 |
| 20260508193039 | 73 | 153 | 1.0 | 7.0 | 0.00 | 0.00 | 0.00 | 65 | 1018.2 |
| 20260508192529 | 72 | 95 | 2.0 | 7.0 | 0.00 | 0.00 | 0.00 | 67 | 1018.2 |
| 20260508192031 | 72 | 90 | 2.0 | 7.0 | 0.00 | 0.00 | 0.00 | 67 | 1018.2 |
| 20260508191537 | 72 | 108 | 4.0 | 7.0 | 0.00 | 0.00 | 0.00 | 67 | 1018.3 |
| 20260508191031 | 72 | 88 | 2.0 | 9.0 | 0.00 | 0.00 | 0.00 | 66 | 1018.3 |
| 20260508190530 | 72 | 109 | 2.0 | 9.0 | 0.00 | 0.00 | 0.00 | 66 | 1018.3 |
| 20260508190050 | 72 | 63 | 3.0 | 9.0 | 0.00 | 0.00 | 0.00 | 64 | 1018.3 |
| 20260508185528 | 72 | 133 | 4.0 | 9.0 | 0.00 | 0.00 | 0.00 | 63 | 1018.3 |
| 20260508185030 | 73 | 134 | 3.0 | 8.0 | 0.00 | 0.00 | 0.00 | 62 | 1018.3 |
| 20260508184539 | 74 | 167 | 4.0 | 7.0 | 0.00 | 0.00 | 0.00 | 60 | 1018.2 |
| 20260508184030 | 75 | 136 | 2.0 | 5.0 | 0.00 | 0.00 | 0.00 | 60 | 1018.2 |
| 20260508183532 | 74 | 37 | 1.0 | 5.0 | 0.00 | 0.00 | 0.00 | 57 | 1018.2 |
| 20260508183039 | 74 | 0 | 2.0 | 5.0 | 0.00 | 0.00 | 0.00 | 56 | 1018.2 |
| 20260508182530 | 74 | 71 | 1.0 | 4.0 | 0.00 | 0.00 | 0.00 | 56 | 1018.1 |
| 20260508182030 | 74 | 57 | 1.0 | 4.0 | 0.00 | 0.00 | 0.00 | 58 | 1018.1 |
| 20260508181604 | 73 | 333 | 2.0 | 4.0 | 0.00 | 0.00 | 0.00 | 56 | 1018.2 |
| 20260508181029 | 73 | 0 | 1.0 | 4.0 | 0.00 | 0.00 | 0.00 | 57 | 1018.2 |
| 20260508180529 | 72 | 161 | 1.0 | 4.0 | 0.00 | 0.00 | 0.00 | 57 | 1018.2 |
| 20260508180043 | 72 | 112 | 1.0 | 4.0 | 0.00 | 0.00 | 0.00 | 61 | 1018.1 |
| 20260508175529 | 71 | 5 | 2.0 | 4.0 | 0.00 | 0.00 | 0.00 | 61 | 1018.1 |
| 20260508175031 | 70 | 0 | 1.0 | 5.0 | 0.00 | 0.00 | 0.00 | 63 | 1018.1 |
| 20260508174535 | 70 | 159 | 2.0 | 5.0 | 0.00 | 0.00 | 0.00 | 61 | 1018.1 |
| 20260508174032 | 70 | 144 | 2.0 | 5.0 | 0.00 | 0.00 | 0.00 | 60 | 1018.2 |
| 20260508173529 | 70 | 117 | 1.0 | 4.0 | 0.00 | 0.00 | 0.00 | 61 | 1018.1 |
| 20260508173036 | 70 | 0 | 1.0 | 5.0 | 0.00 | 0.00 | 0.00 | 59 | 1018.2 |
| 20260508172531 | 70 | 141 | 1.0 | 5.0 | 0.00 | 0.00 | 0.00 | 56 | 1018.1 |
| 20260508172032 | 71 | 138 | 2.0 | 4.0 | 0.00 | 0.00 | 0.00 | 51 | 1018.1 |
| 20260508171538 | 71 | 175 | 1.0 | 4.0 | 0.00 | 0.00 | 0.00 | 55 | 1018.1 |
| 20260508171029 | 70 | 173 | 1.0 | 5.0 | 0.00 | 0.00 | 0.00 | 55 | 1018.0 |
| 20260508170529 | 70 | 136 | 2.0 | 5.0 | 0.00 | 0.00 | 0.00 | 55 | 1018.0 |
| 20260508170043 | 70 | 137 | 1.0 | 3.0 | 0.00 | 0.00 | 0.00 | 54 | 1018.0 |
| 20260508165529 | 70 | 173 | 1.0 | 4.0 | 0.00 | 0.00 | 0.00 | 53 | 1017.9 |
| 20260508165033 | 70 | 352 | 0.0 | 4.0 | 0.00 | 0.00 | 0.00 | 55 | 1017.9 |